Time,TemperatureF,DewpointF,PressureIn,WindDirection,WindDirectionDegrees,WindSpeedMPH,WindSpeedGustMPH,Humidity,HourlyPrecipIn,Conditions,Clouds,dailyrainin,SoftwareType,DateUTC
2013-01-30 00:00:00,10.2,6.8,30.06,NW,320,0.0,0.0,86,0.00,,,0.00,VWS V14.01,2013-01-30 07:00:00,
2013-01-30 00:03:00,12.8,9.4,30.05,NW,320,0.0,2.0,86,0.00,,,0.00,VWS V14.01,2013-01-30 07:03:00,
2013-01-30 00:08:00,11.6,8.2,30.05,NW,320,0.0,2.0,86,0.00,,,0.00,VWS V14.01,2013-01-30 07:08:00,
2013-01-30 00:13:00,11.5,8.1,30.05,NW,320,0.0,2.0,86,0.00,,,0.00,VWS V14.01,2013-01-30 07:13:00,
2013-01-30 00:18:00,11.3,7.9,30.05,NW,320,0.0,2.0,86,0.00,,,0.00,VWS V14.01,2013-01-30 07:18:00,
2013-01-30 00:23:00,11.2,7.8,30.05,NW,320,0.0,2.0,86,0.00,,,0.00,VWS V14.01,2013-01-30 07:23:00,
2013-01-30 00:28:00,11.0,7.6,30.06,NW,320,0.0,2.0,86,0.00,,,0.00,VWS V14.01,2013-01-30 07:28:00,
2013-01-30 00:30:00,10.9,7.5,30.06,NW,320,0.0,2.0,86,0.00,,,0.00,VWS V14.01,2013-01-30 07:30:00,
2013-01-30 00:33:00,10.8,7.4,30.06,NW,320,0.0,0.0,86,0.00,,,0.00,VWS V14.01,2013-01-30 07:33:00,
2013-01-30 00:38:00,10.7,7.3,30.06,NW,320,0.0,0.0,86,0.00,,,0.00,VWS V14.01,2013-01-30 07:38:00,
2013-01-30 00:43:00,10.6,7.2,30.06,NW,320,0.0,0.0,86,0.00,,,0.00,VWS V14.01,2013-01-30 07:43:00,
2013-01-30 00:48:00,10.4,7.1,30.06,NW,320,0.0,0.0,86,0.00,,,0.00,VWS V14.01,2013-01-30 07:48:00,
2013-01-30 00:53:00,10.3,6.9,30.06,NW,320,0.0,0.0,86,0.00,,,0.00,VWS V14.01,2013-01-30 07:53:00,
2013-01-30 00:58:00,10.2,6.8,30.06,NW,320,0.0,0.0,86,0.00,,,0.00,VWS V14.01,2013-01-30 07:58:00,
2013-01-30 01:00:00,9.3,5.7,30.06,NW,318,0.0,0.0,85,0.00,,,0.00,VWS V14.01,2013-01-30 08:00:00,
2013-01-30 01:03:00,10.1,6.8,30.06,NW,320,0.0,0.0,86,0.00,,,0.00,VWS V14.01,2013-01-30 08:03:00,
2013-01-30 01:08:00,10.1,7.0,30.06,NW,326,0.0,0.0,87,0.00,,,0.00,VWS V14.01,2013-01-30 08:08:00,
2013-01-30 01:13:00,10.1,7.0,30.06,NW,322,0.0,0.0,87,0.00,,,0.00,VWS V14.01,2013-01-30 08:13:00,
2013-01-30 01:18:00,10.1,7.0,30.06,NW,318,0.0,0.0,87,0.00,,,0.00,VWS V14.01,2013-01-30 08:18:00,
2013-01-30 01:23:00,10.0,6.9,30.06,NW,318,0.0,0.0,87,0.00,,,0.00,VWS V14.01,2013-01-30 08:23:00,
2013-01-30 01:28:00,10.0,6.9,30.06,NW,318,0.0,0.0,87,0.00,,,0.00,VWS V14.01,2013-01-30 08:28:00,
2013-01-30 01:30:00,6.2,1.1,30.06,NW,318,0.0,0.0,79,0.00,,,0.00,VWS V14.01,2013-01-30 08:30:00,
2013-01-30 01:33:00,10.0,6.9,30.06,NW,318,0.0,0.0,87,0.00,,,0.00,VWS V14.01,2013-01-30 08:33:00,
2013-01-30 01:38:00,10.0,6.9,30.07,NW,318,0.0,0.0,87,0.00,,,0.00,VWS V14.01,2013-01-30 08:38:00,
2013-01-30 01:43:00,9.9,6.8,30.06,NW,318,0.0,0.0,87,0.00,,,0.00,VWS V14.01,2013-01-30 08:43:00,
2013-01-30 01:48:00,9.8,6.5,30.06,NW,318,0.0,0.0,86,0.00,,,0.00,VWS V14.01,2013-01-30 08:48:00,
2013-01-30 01:53:00,9.7,6.4,30.06,NW,318,0.0,0.0,86,0.00,,,0.00,VWS V14.01,2013-01-30 08:53:00,
2013-01-30 01:58:00,9.4,5.8,30.06,NW,318,0.0,0.0,85,0.00,,,0.00,VWS V14.01,2013-01-30 08:58:00,
2013-01-30 02:00:00,1.6,-6.8,30.07,NW,318,0.0,0.0,67,0.00,,,0.00,VWS V14.01,2013-01-30 09:00:00,
2013-01-30 02:03:00,9.0,5.2,30.07,NW,318,0.0,0.0,84,0.00,,,0.00,VWS V14.01,2013-01-30 09:03:00,
2013-01-30 02:08:00,8.7,4.6,30.07,NW,318,0.0,0.0,83,0.00,,,0.00,VWS V14.01,2013-01-30 09:08:00,
2013-01-30 02:13:00,8.3,4.0,30.06,NW,318,0.0,0.0,82,0.00,,,0.00,VWS V14.01,2013-01-30 09:13:00,
2013-01-30 02:18:00,7.9,3.3,30.07,NW,318,0.0,0.0,81,0.00,,,0.00,VWS V14.01,2013-01-30 09:18:00,
2013-01-30 02:23:00,7.1,1.1,30.06,NW,318,0.0,0.0,76,0.00,,,0.00,VWS V14.01,2013-01-30 09:23:00,
2013-01-30 02:28:00,6.5,1.1,30.06,NW,318,0.0,0.0,78,0.00,,,0.00,VWS V14.01,2013-01-30 09:28:00,
2013-01-30 02:30:00,-3.0,-10.6,30.07,NW,318,0.0,0.0,69,0.00,,,0.00,VWS V14.01,2013-01-30 09:30:00,
2013-01-30 02:33:00,6.0,1.2,30.06,NW,318,0.0,0.0,80,0.00,,,0.00,VWS V14.01,2013-01-30 09:33:00,
2013-01-30 02:38:00,5.5,0.1,30.07,NW,318,0.0,0.0,78,0.00,,,0.00,VWS V14.01,2013-01-30 09:38:00,
2013-01-30 02:43:00,4.8,-1.6,30.07,NW,318,0.0,0.0,74,0.00,,,0.00,VWS V14.01,2013-01-30 09:43:00,
2013-01-30 02:48:00,4.0,-3.3,30.06,NW,318,0.0,0.0,71,0.00,,,0.00,VWS V14.01,2013-01-30 09:48:00,
2013-01-30 02:53:00,3.0,-4.8,30.07,NW,318,0.0,0.0,69,0.00,,,0.00,VWS V14.01,2013-01-30 09:53:00,
2013-01-30 02:58:00,2.2,-5.9,30.07,NW,318,0.0,0.0,68,0.00,,,0.00,VWS V14.01,2013-01-30 09:58:00,
2013-01-30 03:00:00,-5.9,-12.0,30.07,NW,309,0.0,0.0,74,0.00,,,0.00,VWS V14.01,2013-01-30 10:00:00,
2013-01-30 03:03:00,1.2,-7.2,30.07,NW,318,0.0,0.0,67,0.00,,,0.00,VWS V14.01,2013-01-30 10:03:00,
2013-01-30 03:08:00,0.2,-8.1,30.06,NW,318,0.0,0.0,67,0.00,,,0.00,VWS V14.01,2013-01-30 10:08:00,
2013-01-30 03:13:00,-0.8,-9.1,30.06,NW,318,0.0,0.0,67,0.00,,,0.00,VWS V14.01,2013-01-30 10:13:00,
2013-01-30 03:18:00,-1.6,-9.9,30.06,NW,318,0.0,0.0,67,0.00,,,0.00,VWS V14.01,2013-01-30 10:18:00,
2013-01-30 03:23:00,-2.3,-10.2,30.06,NW,318,0.0,0.0,68,0.00,,,0.00,VWS V14.01,2013-01-30 10:23:00,
2013-01-30 03:28:00,-2.8,-10.4,30.07,NW,318,0.0,0.0,69,0.00,,,0.00,VWS V14.01,2013-01-30 10:28:00,
2013-01-30 03:30:00,-7.1,-12.4,30.08,NW,309,0.0,0.0,77,0.00,,,0.00,VWS V14.01,2013-01-30 10:30:00,
2013-01-30 03:33:00,-3.3,-10.9,30.07,NW,318,0.0,0.0,69,0.00,,,0.00,VWS V14.01,2013-01-30 10:33:00,
2013-01-30 03:38:00,-4.1,-12.0,30.07,NW,318,0.0,0.0,68,0.00,,,0.00,VWS V14.01,2013-01-30 10:38:00,
2013-01-30 03:43:00,-4.6,-12.2,30.07,NW,318,0.0,0.0,69,0.00,,,0.00,VWS V14.01,2013-01-30 10:43:00,
2013-01-30 03:48:00,-5.1,-12.4,30.07,NW,318,0.0,0.0,70,0.00,,,0.00,VWS V14.01,2013-01-30 10:48:00,
2013-01-30 03:53:00,-5.5,-12.5,30.07,NW,309,0.0,0.0,71,0.00,,,0.00,VWS V14.01,2013-01-30 10:53:00,
2013-01-30 03:58:00,-5.8,-12.2,30.07,NW,309,0.0,0.0,73,0.00,,,0.00,VWS V14.01,2013-01-30 10:58:00,
2013-01-30 04:00:00,-5.9,-12.0,30.07,NW,309,0.0,0.0,74,0.00,,,0.00,VWS V14.01,2013-01-30 11:00:00,
2013-01-30 04:03:00,-6.0,-12.1,30.07,NW,309,0.0,0.0,74,0.00,,,0.00,VWS V14.01,2013-01-30 11:03:00,
2013-01-30 04:08:00,-6.3,-12.1,30.08,NW,309,0.0,0.0,75,0.00,,,0.00,VWS V14.01,2013-01-30 11:08:00,
2013-01-30 04:13:00,-6.5,-12.3,30.08,NW,309,0.0,0.0,75,0.00,,,0.00,VWS V14.01,2013-01-30 11:13:00,
2013-01-30 04:18:00,-6.7,-12.3,30.09,NW,309,0.0,0.0,76,0.00,,,0.00,VWS V14.01,2013-01-30 11:18:00,
2013-01-30 04:23:00,-6.8,-12.1,30.08,NW,309,0.0,0.0,77,0.00,,,0.00,VWS V14.01,2013-01-30 11:23:00,
2013-01-30 04:28:00,-7.0,-12.3,30.09,NW,309,0.0,0.0,77,0.00,,,0.00,VWS V14.01,2013-01-30 11:28:00,
2013-01-30 04:30:00,-8.3,-12.8,30.10,NW,309,0.0,0.0,80,0.00,,,0.00,VWS V14.01,2013-01-30 11:30:00,
2013-01-30 04:33:00,-7.2,-12.8,30.09,NW,309,0.0,0.0,76,0.00,,,0.00,VWS V14.01,2013-01-30 11:33:00,
2013-01-30 04:38:00,-7.4,-12.7,30.09,NW,309,0.0,0.0,77,0.00,,,0.00,VWS V14.01,2013-01-30 11:38:00,
2013-01-30 04:43:00,-7.6,-12.9,30.09,NW,309,0.0,0.0,77,0.00,,,0.00,VWS V14.01,2013-01-30 11:43:00,
2013-01-30 04:48:00,-7.7,-12.7,30.09,NW,309,0.0,0.0,78,0.00,,,0.00,VWS V14.01,2013-01-30 11:48:00,
2013-01-30 04:53:00,-8.0,-13.0,30.09,NW,309,0.0,0.0,78,0.00,,,0.00,VWS V14.01,2013-01-30 11:53:00,
2013-01-30 04:58:00,-8.0,-12.8,30.09,NW,309,0.0,0.0,79,0.00,,,0.00,VWS V14.01,2013-01-30 11:58:00,
2013-01-30 05:00:00,-8.9,-13.4,30.11,NW,309,0.0,0.0,80,0.00,,,0.00,VWS V14.01,2013-01-30 12:00:00,
2013-01-30 05:03:00,-8.1,-12.9,30.10,NW,309,0.0,0.0,79,0.00,,,0.00,VWS V14.01,2013-01-30 12:03:00,
2013-01-30 05:08:00,-8.1,-12.9,30.10,NW,309,0.0,0.0,79,0.00,,,0.00,VWS V14.01,2013-01-30 12:08:00,
2013-01-30 05:13:00,-8.2,-12.7,30.10,NW,309,0.0,0.0,80,0.00,,,0.00,VWS V14.01,2013-01-30 12:13:00,
2013-01-30 05:18:00,-8.2,-12.7,30.10,NW,309,0.0,0.0,80,0.00,,,0.00,VWS V14.01,2013-01-30 12:18:00,
2013-01-30 05:23:00,-8.2,-12.7,30.10,NW,309,0.0,0.0,80,0.00,,,0.00,VWS V14.01,2013-01-30 12:23:00,
2013-01-30 05:28:00,-8.3,-12.8,30.10,NW,309,0.0,0.0,80,0.00,,,0.00,VWS V14.01,2013-01-30 12:28:00,
2013-01-30 05:30:00,-9.1,-13.3,30.11,NW,309,0.0,0.0,81,0.00,,,0.00,VWS V14.01,2013-01-30 12:30:00,
2013-01-30 05:33:00,-8.4,-12.9,30.10,NW,309,0.0,0.0,80,0.00,,,0.00,VWS V14.01,2013-01-30 12:33:00,
2013-01-30 05:38:00,-8.6,-13.1,30.10,NW,309,0.0,0.0,80,0.00,,,0.00,VWS V14.01,2013-01-30 12:38:00,
2013-01-30 05:43:00,-8.6,-13.1,30.11,NW,309,0.0,0.0,80,0.00,,,0.00,VWS V14.01,2013-01-30 12:43:00,
2013-01-30 05:48:00,-8.7,-13.2,30.11,NW,309,0.0,0.0,80,0.00,,,0.00,VWS V14.01,2013-01-30 12:48:00,
2013-01-30 05:53:00,-8.8,-13.3,30.11,NW,309,0.0,0.0,80,0.00,,,0.00,VWS V14.01,2013-01-30 12:53:00,
2013-01-30 05:58:00,-8.8,-13.3,30.11,NW,309,0.0,0.0,80,0.00,,,0.00,VWS V14.01,2013-01-30 12:58:00,
2013-01-30 06:00:00,-8.7,-12.7,30.12,NW,309,0.0,0.0,82,0.00,,,0.00,VWS V14.01,2013-01-30 13:00:00,
2013-01-30 06:03:00,-8.9,-13.1,30.11,NW,309,0.0,0.0,81,0.00,,,0.00,VWS V14.01,2013-01-30 13:03:00,
2013-01-30 06:08:00,-8.9,-13.1,30.11,NW,309,0.0,0.0,81,0.00,,,0.00,VWS V14.01,2013-01-30 13:08:00,
2013-01-30 06:13:00,-8.9,-13.1,30.11,NW,309,0.0,0.0,81,0.00,,,0.00,VWS V14.01,2013-01-30 13:13:00,
2013-01-30 06:18:00,-9.0,-13.2,30.11,NW,309,0.0,0.0,81,0.00,,,0.00,VWS V14.01,2013-01-30 13:18:00,
2013-01-30 06:23:00,-9.0,-13.2,30.11,NW,309,0.0,0.0,81,0.00,,,0.00,VWS V14.01,2013-01-30 13:23:00,
2013-01-30 06:28:00,-9.0,-13.2,30.11,NW,309,0.0,0.0,81,0.00,,,0.00,VWS V14.01,2013-01-30 13:28:00,
2013-01-30 06:30:00,-1.3,-4.2,30.13,NW,309,0.0,0.0,87,0.00,,,0.00,VWS V14.01,2013-01-30 13:30:00,
2013-01-30 06:33:00,-9.1,-13.3,30.11,NW,309,0.0,0.0,81,0.00,,,0.00,VWS V14.01,2013-01-30 13:33:00,
2013-01-30 06:38:00,-9.0,-13.2,30.11,NW,309,0.0,0.0,81,0.00,,,0.00,VWS V14.01,2013-01-30 13:38:00,
2013-01-30 06:43:00,-9.0,-13.2,30.11,NW,309,0.0,0.0,81,0.00,,,0.00,VWS V14.01,2013-01-30 13:43:00,
2013-01-30 06:48:00,-9.0,-13.0,30.12,NW,309,0.0,0.0,82,0.00,,,0.00,VWS V14.01,2013-01-30 13:48:00,
2013-01-30 06:53:00,-8.9,-12.9,30.12,NW,309,0.0,0.0,82,0.00,,,0.00,VWS V14.01,2013-01-30 13:53:00,
2013-01-30 06:58:00,-8.9,-12.9,30.12,NW,309,0.0,0.0,82,0.00,,,0.00,VWS V14.01,2013-01-30 13:58:00,
2013-01-30 07:00:00,4.2,1.2,30.13,NW,309,0.0,0.0,87,0.00,,,0.00,VWS V14.01,2013-01-30 14:00:00,
2013-01-30 07:03:00,-6.9,-10.4,30.12,NW,309,0.0,0.0,84,0.00,,,0.00,VWS V14.01,2013-01-30 14:03:00,
2013-01-30 07:08:00,-5.4,-8.5,30.12,NW,309,0.0,0.0,86,0.00,,,0.00,VWS V14.01,2013-01-30 14:08:00,
2013-01-30 07:13:00,-4.9,-8.2,30.12,NW,309,0.0,0.0,85,0.00,,,0.00,VWS V14.01,2013-01-30 14:13:00,
2013-01-30 07:18:00,-4.5,-7.8,30.12,NW,309,0.0,0.0,85,0.00,,,0.00,VWS V14.01,2013-01-30 14:18:00,
2013-01-30 07:23:00,-3.1,-6.2,30.12,NW,309,0.0,0.0,86,0.00,,,0.00,VWS V14.01,2013-01-30 14:23:00,
2013-01-30 07:28:00,-1.5,-4.2,30.13,NW,309,0.0,0.0,88,0.00,,,0.00,VWS V14.01,2013-01-30 14:28:00,
2013-01-30 07:30:00,7.2,4.4,30.13,NW,309,0.0,0.0,88,0.00,,,0.00,VWS V14.01,2013-01-30 14:30:00,
2013-01-30 07:33:00,-1.3,-4.2,30.13,NW,309,0.0,0.0,87,0.00,,,0.00,VWS V14.01,2013-01-30 14:33:00,
2013-01-30 07:38:00,-0.8,-4.0,30.13,NW,309,0.0,0.0,86,0.00,,,0.00,VWS V14.01,2013-01-30 14:38:00,
2013-01-30 07:43:00,0.9,-1.8,30.12,NW,309,0.0,0.0,88,0.00,,,0.00,VWS V14.01,2013-01-30 14:43:00,
2013-01-30 07:48:00,2.7,0.0,30.13,NW,309,0.0,0.0,88,0.00,,,0.00,VWS V14.01,2013-01-30 14:48:00,
2013-01-30 07:53:00,3.5,0.8,30.13,NW,309,0.0,0.0,88,0.00,,,0.00,VWS V14.01,2013-01-30 14:53:00,
2013-01-30 07:58:00,4.0,1.0,30.12,NW,309,0.0,0.0,87,0.00,,,0.00,VWS V14.01,2013-01-30 14:58:00,
2013-01-30 08:00:00,9.7,6.9,30.12,NW,306,0.0,0.0,88,0.00,,,0.00,VWS V14.01,2013-01-30 15:00:00,
2013-01-30 08:03:00,4.6,1.6,30.13,NW,309,0.0,0.0,87,0.00,,,0.00,VWS V14.01,2013-01-30 15:03:00,
2013-01-30 08:08:00,5.2,2.2,30.13,NW,309,0.0,0.0,87,0.00,,,0.00,VWS V14.01,2013-01-30 15:08:00,
2013-01-30 08:13:00,5.8,2.8,30.13,NW,309,0.0,0.0,87,0.00,,,0.00,VWS V14.01,2013-01-30 15:13:00,
2013-01-30 08:18:00,6.3,3.3,30.13,NW,309,0.0,0.0,87,0.00,,,0.00,VWS V14.01,2013-01-30 15:18:00,
2013-01-30 08:23:00,6.7,3.7,30.12,NW,309,0.0,0.0,87,0.00,,,0.00,VWS V14.01,2013-01-30 15:23:00,
2013-01-30 08:28:00,7.0,4.0,30.12,NW,309,0.0,0.0,87,0.00,,,0.00,VWS V14.01,2013-01-30 15:28:00,
2013-01-30 08:30:00,12.3,9.7,30.10,WSW,247,1.0,1.0,89,0.00,,,0.00,VWS V14.01,2013-01-30 15:30:00,
2013-01-30 08:33:00,7.5,4.4,30.13,NW,309,0.0,0.0,87,0.00,,,0.00,VWS V14.01,2013-01-30 15:33:00,
2013-01-30 08:38:00,7.9,5.1,30.12,NW,309,0.0,0.0,88,0.00,,,0.00,VWS V14.01,2013-01-30 15:38:00,
2013-01-30 08:43:00,8.3,5.5,30.13,NW,309,0.0,0.0,88,0.00,,,0.00,VWS V14.01,2013-01-30 15:43:00,
2013-01-30 08:48:00,8.8,6.0,30.13,NW,309,0.0,0.0,88,0.00,,,0.00,VWS V14.01,2013-01-30 15:48:00,
2013-01-30 08:53:00,9.2,6.4,30.12,NW,309,0.0,0.0,88,0.00,,,0.00,VWS V14.01,2013-01-30 15:53:00,
2013-01-30 08:58:00,9.6,6.8,30.12,NW,309,0.0,0.0,88,0.00,,,0.00,VWS V14.01,2013-01-30 15:58:00,
2013-01-30 09:00:00,16.2,13.0,30.11,West,266,1.0,6.0,87,0.00,,,0.00,VWS V14.01,2013-01-30 16:00:00,
2013-01-30 09:03:00,9.9,7.1,30.10,WSW,257,0.0,0.0,88,0.00,,,0.00,VWS V14.01,2013-01-30 16:03:00,
2013-01-30 09:08:00,10.3,7.5,30.10,WSW,240,0.0,0.0,88,0.00,,,0.00,VWS V14.01,2013-01-30 16:08:00,
2013-01-30 09:13:00,10.7,7.8,30.10,WSW,240,0.0,0.0,88,0.00,,,0.00,VWS V14.01,2013-01-30 16:13:00,
2013-01-30 09:18:00,11.0,8.4,30.10,SW,229,0.0,1.0,89,0.00,,,0.00,VWS V14.01,2013-01-30 16:18:00,
2013-01-30 09:23:00,11.5,8.9,30.10,SW,236,0.0,1.0,89,0.00,,,0.00,VWS V14.01,2013-01-30 16:23:00,
2013-01-30 09:28:00,11.8,9.2,30.10,SW,236,0.0,1.0,89,0.00,,,0.00,VWS V14.01,2013-01-30 16:28:00,
2013-01-30 09:30:00,18.9,15.9,30.11,West,273,0.0,3.0,88,0.00,,,0.00,VWS V14.01,2013-01-30 16:30:00,
2013-01-30 09:33:00,12.8,10.2,30.10,West,278,0.0,2.0,89,0.00,,,0.00,VWS V14.01,2013-01-30 16:33:00,
2013-01-30 09:38:00,13.5,10.9,30.10,WNW,286,0.0,2.0,89,0.00,,,0.00,VWS V14.01,2013-01-30 16:38:00,
2013-01-30 09:43:00,14.2,11.6,30.10,West,263,0.0,4.0,89,0.00,,,0.00,VWS V14.01,2013-01-30 16:43:00,
2013-01-30 09:48:00,14.9,12.2,30.10,West,271,0.0,6.0,89,0.00,,,0.00,VWS V14.01,2013-01-30 16:48:00,
2013-01-30 09:53:00,15.5,12.6,30.11,WNW,292,0.0,6.0,88,0.00,,,0.00,VWS V14.01,2013-01-30 16:53:00,
2013-01-30 09:58:00,16.1,13.2,30.11,West,259,0.0,6.0,88,0.00,,,0.00,VWS V14.01,2013-01-30 16:58:00,
2013-01-30 10:00:00,23.8,19.1,30.11,NW,319,0.0,4.0,82,0.00,,,0.00,VWS V14.01,2013-01-30 17:00:00,
2013-01-30 10:03:00,16.3,13.1,30.11,West,266,1.0,1.0,87,0.00,,,0.00,VWS V14.01,2013-01-30 17:03:00,
2013-01-30 10:08:00,16.9,13.7,30.11,WSW,248,1.0,3.0,87,0.00,,,0.00,VWS V14.01,2013-01-30 17:08:00,
2013-01-30 10:13:00,17.4,14.2,30.11,WSW,252,0.0,3.0,87,0.00,,,0.00,VWS V14.01,2013-01-30 17:13:00,
2013-01-30 10:18:00,17.9,14.7,30.11,West,270,0.0,3.0,87,0.00,,,0.00,VWS V14.01,2013-01-30 17:18:00,
2013-01-30 10:23:00,18.3,15.1,30.11,West,264,0.0,3.0,87,0.00,,,0.00,VWS V14.01,2013-01-30 17:23:00,
2013-01-30 10:28:00,18.7,15.7,30.11,West,264,0.0,3.0,88,0.00,,,0.00,VWS V14.01,2013-01-30 17:28:00,
2013-01-30 10:30:00,28.2,16.5,30.10,WNW,298,0.0,3.0,61,0.00,,,0.00,VWS V14.01,2013-01-30 17:30:00,
2013-01-30 10:33:00,19.1,16.1,30.11,West,273,0.0,1.0,88,0.00,,,0.00,VWS V14.01,2013-01-30 17:33:00,
2013-01-30 10:38:00,19.7,16.7,30.11,NW,321,0.0,2.0,88,0.00,,,0.00,VWS V14.01,2013-01-30 17:38:00,
2013-01-30 10:43:00,20.5,17.5,30.11,NW,309,2.0,2.0,88,0.00,,,0.00,VWS V14.01,2013-01-30 17:43:00,
2013-01-30 10:48:00,21.4,18.1,30.11,WNW,283,1.0,4.0,87,0.00,,,0.00,VWS V14.01,2013-01-30 17:48:00,
2013-01-30 10:53:00,22.6,18.8,30.11,West,278,1.0,4.0,85,0.00,,,0.00,VWS V14.01,2013-01-30 17:53:00,
2013-01-30 10:58:00,23.5,19.4,30.11,NW,319,0.0,4.0,84,0.00,,,0.00,VWS V14.01,2013-01-30 17:58:00,
2013-01-30 11:00:00,29.0,16.5,30.10,North,5,0.0,3.0,59,0.00,,,0.00,VWS V14.01,2013-01-30 18:00:00,
2013-01-30 11:03:00,24.3,19.6,30.11,NW,319,0.0,1.0,82,0.00,,,0.00,VWS V14.01,2013-01-30 18:03:00,
2013-01-30 11:08:00,25.0,20.0,30.11,NW,321,0.0,2.0,81,0.00,,,0.00,VWS V14.01,2013-01-30 18:08:00,
2013-01-30 11:13:00,25.7,20.4,30.11,WNW,298,0.0,2.0,80,0.00,,,0.00,VWS V14.01,2013-01-30 18:13:00,
2013-01-30 11:18:00,26.5,20.3,30.11,NW,324,1.0,3.0,77,0.00,,,0.00,VWS V14.01,2013-01-30 18:18:00,
2013-01-30 11:23:00,27.2,17.7,30.10,West,265,1.0,3.0,67,0.00,,,0.00,VWS V14.01,2013-01-30 18:23:00,
2013-01-30 11:28:00,28.1,16.8,30.10,WNW,285,2.0,3.0,62,0.00,,,0.00,VWS V14.01,2013-01-30 18:28:00,
2013-01-30 11:30:00,28.9,16.4,30.10,North,355,1.0,5.0,59,0.01,,,0.01,VWS V14.01,2013-01-30 18:30:00,
2013-01-30 11:33:00,28.2,16.1,30.10,WNW,288,3.0,3.0,60,0.00,,,0.00,VWS V14.01,2013-01-30 18:33:00,
2013-01-30 11:38:00,28.3,16.2,30.10,NW,309,0.0,3.0,60,0.00,,,0.00,VWS V14.01,2013-01-30 18:38:00,
2013-01-30 11:43:00,29.0,16.5,30.10,NNE,17,1.0,3.0,59,0.00,,,0.00,VWS V14.01,2013-01-30 18:43:00,
2013-01-30 11:48:00,29.1,16.2,30.10,WNW,296,0.0,3.0,58,0.00,,,0.00,VWS V14.01,2013-01-30 18:48:00,
2013-01-30 11:53:00,29.1,16.2,30.10,NNW,343,0.0,3.0,58,0.00,,,0.00,VWS V14.01,2013-01-30 18:53:00,
2013-01-30 11:58:00,28.8,15.9,30.10,North,5,0.0,3.0,58,0.00,,,0.00,VWS V14.01,2013-01-30 18:58:00,
2013-01-30 12:00:00,27.2,15.2,30.10,WNW,298,1.0,5.0,60,0.01,,,0.01,VWS V14.01,2013-01-30 19:00:00,
2013-01-30 12:03:00,29.2,16.7,30.09,WNW,300,2.0,2.0,59,0.00,,,0.00,VWS V14.01,2013-01-30 19:03:00,
2013-01-30 12:08:00,29.1,17.0,30.09,WNW,300,0.0,2.0,60,0.00,,,0.00,VWS V14.01,2013-01-30 19:08:00,
2013-01-30 12:13:00,28.9,16.4,30.09,NW,309,1.0,2.0,59,0.00,,,0.00,VWS V14.01,2013-01-30 19:13:00,
2013-01-30 12:18:00,28.7,16.2,30.10,NW,320,2.0,2.0,59,0.01,,,0.01,VWS V14.01,2013-01-30 19:18:00,
2013-01-30 12:23:00,28.7,16.6,30.10,WSW,256,2.0,3.0,60,0.01,,,0.01,VWS V14.01,2013-01-30 19:23:00,
2013-01-30 12:28:00,28.8,15.9,30.10,North,11,0.0,5.0,58,0.01,,,0.01,VWS V14.01,2013-01-30 19:28:00,
2013-01-30 12:30:00,28.9,16.4,30.10,North,355,1.0,5.0,59,0.01,,,0.01,VWS V14.01,2013-01-30 19:30:00,
2013-01-30 12:33:00,28.9,16.4,30.10,NW,314,2.0,2.0,59,0.01,,,0.01,VWS V14.01,2013-01-30 19:33:00,
2013-01-30 12:38:00,28.7,15.4,30.10,NW,315,2.0,4.0,57,0.01,,,0.01,VWS V14.01,2013-01-30 19:38:00,
2013-01-30 12:43:00,28.4,14.7,30.10,NW,305,1.0,5.0,56,0.01,,,0.01,VWS V14.01,2013-01-30 19:43:00,
2013-01-30 12:48:00,27.9,14.6,30.10,NNW,327,1.0,5.0,57,0.01,,,0.01,VWS V14.01,2013-01-30 19:48:00,
2013-01-30 12:53:00,27.6,15.2,30.10,NW,321,0.0,5.0,59,0.01,,,0.01,VWS V14.01,2013-01-30 19:53:00,
2013-01-30 12:58:00,27.3,14.9,30.10,WNW,298,1.0,5.0,59,0.01,,,0.01,VWS V14.01,2013-01-30 19:58:00,
2013-01-30 13:00:00,29.0,17.6,30.10,NW,307,2.0,6.0,62,0.01,,,0.01,VWS V14.01,2013-01-30 20:00:00,
2013-01-30 13:03:00,27.2,15.6,30.10,NW,308,0.0,3.0,61,0.01,,,0.01,VWS V14.01,2013-01-30 20:03:00,
2013-01-30 13:08:00,27.8,16.1,30.10,NW,325,0.0,4.0,61,0.01,,,0.01,VWS V14.01,2013-01-30 20:08:00,
2013-01-30 13:13:00,28.4,16.7,30.10,NW,325,2.0,4.0,61,0.01,,,0.01,VWS V14.01,2013-01-30 20:13:00,
2013-01-30 13:18:00,28.5,16.4,30.10,NNW,328,3.0,4.0,60,0.01,,,0.01,VWS V14.01,2013-01-30 20:18:00,
2013-01-30 13:23:00,28.4,15.9,30.10,NW,325,0.0,4.0,59,0.01,,,0.01,VWS V14.01,2013-01-30 20:23:00,
2013-01-30 13:28:00,28.3,16.6,30.09,WNW,290,0.0,4.0,61,0.01,,,0.01,VWS V14.01,2013-01-30 20:28:00,
2013-01-30 13:30:00,29.1,15.8,30.11,NNW,328,0.0,5.0,57,0.00,,,0.01,VWS V14.01,2013-01-30 20:30:00,
2013-01-30 13:33:00,28.9,17.5,30.10,WNW,295,1.0,4.0,62,0.01,,,0.01,VWS V14.01,2013-01-30 20:33:00,
2013-01-30 13:38:00,29.7,17.9,30.09,NW,320,0.0,4.0,61,0.01,,,0.01,VWS V14.01,2013-01-30 20:38:00,
2013-01-30 13:43:00,29.9,16.9,30.10,NW,319,3.0,4.0,58,0.01,,,0.01,VWS V14.01,2013-01-30 20:43:00,
2013-01-30 13:48:00,30.0,17.4,30.10,NW,316,3.0,6.0,59,0.01,,,0.01,VWS V14.01,2013-01-30 20:48:00,
2013-01-30 13:53:00,29.9,17.3,30.10,WNW,288,3.0,6.0,59,0.01,,,0.01,VWS V14.01,2013-01-30 20:53:00,
2013-01-30 14:00:00,26.8,15.2,30.11,NW,323,0.0,2.0,61,0.00,,,0.01,VWS V14.01,2013-01-30 21:00:00,
2013-01-30 14:01:00,29.2,17.1,30.10,NW,307,1.0,6.0,60,0.01,,,0.01,VWS V14.01,2013-01-30 21:01:00,
2013-01-30 14:06:00,29.2,17.4,30.10,NNW,332,1.0,3.0,61,0.00,,,0.01,VWS V14.01,2013-01-30 21:06:00,
2013-01-30 14:11:00,29.4,16.9,30.10,NW,319,2.0,3.0,59,0.00,,,0.01,VWS V14.01,2013-01-30 21:11:00,
2013-01-30 14:16:00,29.4,17.2,30.10,NW,326,2.0,5.0,60,0.00,,,0.01,VWS V14.01,2013-01-30 21:16:00,
2013-01-30 14:21:00,29.3,16.8,30.10,NW,323,1.0,5.0,59,0.00,,,0.01,VWS V14.01,2013-01-30 21:21:00,
2013-01-30 14:26:00,29.3,16.4,30.10,NNW,328,2.0,5.0,58,0.00,,,0.01,VWS V14.01,2013-01-30 21:26:00,
2013-01-30 14:30:00,28.4,15.9,30.12,NNW,332,1.0,2.0,59,0.00,,,0.01,VWS V14.01,2013-01-30 21:30:00,
2013-01-30 14:31:00,29.1,15.8,30.11,NNW,328,0.0,2.0,57,0.00,,,0.01,VWS V14.01,2013-01-30 21:31:00,
2013-01-30 14:36:00,28.6,15.7,30.11,NW,317,0.0,2.0,58,0.00,,,0.01,VWS V14.01,2013-01-30 21:36:00,
2013-01-30 14:41:00,28.2,15.3,30.11,NW,317,0.0,2.0,58,0.00,,,0.01,VWS V14.01,2013-01-30 21:41:00,
2013-01-30 14:46:00,27.6,15.2,30.11,NW,323,0.0,2.0,59,0.00,,,0.01,VWS V14.01,2013-01-30 21:46:00,
2013-01-30 14:51:00,27.2,15.2,30.11,NW,323,0.0,2.0,60,0.00,,,0.01,VWS V14.01,2013-01-30 21:51:00,
2013-01-30 14:56:00,27.0,15.0,30.11,NW,323,0.0,2.0,60,0.00,,,0.01,VWS V14.01,2013-01-30 21:56:00,
2013-01-30 15:00:00,27.7,16.8,30.12,NNW,332,0.0,1.0,63,0.00,,,0.01,VWS V14.01,2013-01-30 22:00:00,
2013-01-30 15:01:00,26.8,14.8,30.11,NW,323,0.0,0.0,60,0.00,,,0.01,VWS V14.01,2013-01-30 22:01:00,
2013-01-30 15:06:00,27.1,15.8,30.11,NW,323,0.0,0.0,62,0.00,,,0.01,VWS V14.01,2013-01-30 22:06:00,
2013-01-30 15:11:00,27.9,16.6,30.12,NW,323,0.0,2.0,62,0.00,,,0.01,VWS V14.01,2013-01-30 22:11:00,
2013-01-30 15:16:00,28.3,15.8,30.12,NNW,335,0.0,2.0,59,0.00,,,0.01,VWS V14.01,2013-01-30 22:16:00,
2013-01-30 15:21:00,28.3,15.8,30.12,NNW,335,0.0,2.0,59,0.00,,,0.01,VWS V14.01,2013-01-30 22:21:00,
2013-01-30 15:26:00,28.3,15.8,30.12,NNW,335,0.0,2.0,59,0.00,,,0.01,VWS V14.01,2013-01-30 22:26:00,
2013-01-30 15:30:00,27.8,17.6,30.12,NNW,332,0.0,2.0,65,0.00,,,0.01,VWS V14.01,2013-01-30 22:30:00,
2013-01-30 15:31:00,28.4,15.9,30.12,NNW,332,0.0,1.0,59,0.00,,,0.01,VWS V14.01,2013-01-30 22:31:00,
2013-01-30 15:36:00,28.4,15.5,30.12,NNW,332,0.0,1.0,58,0.00,,,0.01,VWS V14.01,2013-01-30 22:36:00,
2013-01-30 15:41:00,28.0,15.5,30.12,NNW,332,0.0,1.0,59,0.00,,,0.01,VWS V14.01,2013-01-30 22:41:00,
2013-01-30 15:46:00,27.9,16.6,30.12,NNW,332,0.0,1.0,62,0.00,,,0.01,VWS V14.01,2013-01-30 22:46:00,
2013-01-30 15:51:00,27.8,16.5,30.12,NNW,332,0.0,1.0,62,0.00,,,0.01,VWS V14.01,2013-01-30 22:51:00,
2013-01-30 15:56:00,27.7,16.8,30.12,NNW,332,0.0,1.0,63,0.00,,,0.01,VWS V14.01,2013-01-30 22:56:00,
2013-01-30 16:00:00,26.9,17.1,30.12,NNW,332,0.0,1.0,66,0.00,,,0.01,VWS V14.01,2013-01-30 23:00:00,
2013-01-30 16:01:00,27.7,16.8,30.12,NNW,332,0.0,0.0,63,0.00,,,0.01,VWS V14.01,2013-01-30 23:01:00,
2013-01-30 16:06:00,27.8,16.9,30.12,NNW,332,0.0,0.0,63,0.00,,,0.01,VWS V14.01,2013-01-30 23:06:00,
2013-01-30 16:11:00,27.8,16.9,30.12,NNW,332,0.0,2.0,63,0.00,,,0.01,VWS V14.01,2013-01-30 23:11:00,
2013-01-30 16:16:00,28.0,17.4,30.12,NNW,332,0.0,2.0,64,0.00,,,0.01,VWS V14.01,2013-01-30 23:16:00,
2013-01-30 16:21:00,28.0,17.8,30.12,NNW,332,0.0,2.0,65,0.00,,,0.01,VWS V14.01,2013-01-30 23:21:00,
2013-01-30 16:26:00,27.9,18.7,30.12,NNW,332,0.0,2.0,68,0.00,,,0.01,VWS V14.01,2013-01-30 23:26:00,
2013-01-30 16:30:00,24.3,17.8,30.12,NNW,332,0.0,1.0,76,0.00,,,0.01,VWS V14.01,2013-01-30 23:30:00,
2013-01-30 16:31:00,27.8,17.9,30.12,NNW,332,0.0,0.0,66,0.00,,,0.01,VWS V14.01,2013-01-30 23:31:00,
2013-01-30 16:36:00,27.5,18.7,30.12,NNW,332,0.0,0.0,69,0.00,,,0.01,VWS V14.01,2013-01-30 23:36:00,
2013-01-30 16:41:00,27.3,17.1,30.12,NNW,332,0.0,0.0,65,0.00,,,0.01,VWS V14.01,2013-01-30 23:41:00,
2013-01-30 16:46:00,27.2,18.4,30.12,NNW,332,0.0,0.0,69,0.00,,,0.01,VWS V14.01,2013-01-30 23:46:00,
2013-01-30 16:51:00,27.1,18.0,30.12,NNW,332,0.0,0.0,68,0.00,,,0.01,VWS V14.01,2013-01-30 23:51:00,
2013-01-30 16:56:00,26.9,17.1,30.12,NNW,332,0.0,1.0,66,0.00,,,0.01,VWS V14.01,2013-01-30 23:56:00,
2013-01-30 17:00:00,23.6,18.4,30.13,NNW,332,0.0,1.0,80,0.00,,,0.01,VWS V14.01,2013-01-31 00:00:00,
2013-01-30 17:01:00,26.8,17.0,30.12,NNW,332,0.0,0.0,66,0.00,,,0.01,VWS V14.01,2013-01-31 00:01:00,
2013-01-30 17:06:00,26.7,16.2,30.12,NNW,332,0.0,0.0,64,0.00,,,0.01,VWS V14.01,2013-01-31 00:06:00,
2013-01-30 17:11:00,26.1,18.0,30.12,NNW,332,0.0,1.0,71,0.00,,,0.01,VWS V14.01,2013-01-31 00:11:00,
2013-01-30 17:16:00,25.4,18.3,30.12,NNW,332,0.0,1.0,74,0.00,,,0.01,VWS V14.01,2013-01-31 00:16:00,
2013-01-30 17:21:00,24.9,18.4,30.12,NNW,332,0.0,1.0,76,0.00,,,0.01,VWS V14.01,2013-01-31 00:21:00,
2013-01-30 17:26:00,24.6,18.1,30.12,NNW,332,0.0,1.0,76,0.00,,,0.01,VWS V14.01,2013-01-31 00:26:00,
2013-01-30 17:30:00,23.0,18.0,30.15,NNW,332,0.0,0.0,81,0.00,,,0.01,VWS V14.01,2013-01-31 00:30:00,
2013-01-30 17:31:00,24.3,17.8,30.12,NNW,332,0.0,0.0,76,0.00,,,0.01,VWS V14.01,2013-01-31 00:31:00,
2013-01-30 17:36:00,24.2,17.1,30.12,NNW,332,0.0,1.0,74,0.00,,,0.01,VWS V14.01,2013-01-31 00:36:00,
2013-01-30 17:41:00,24.1,18.0,30.13,NNW,332,0.0,1.0,77,0.00,,,0.01,VWS V14.01,2013-01-31 00:41:00,
2013-01-30 17:46:00,23.9,18.0,30.13,NNW,332,0.0,1.0,78,0.00,,,0.01,VWS V14.01,2013-01-31 00:46:00,
2013-01-30 17:51:00,23.8,18.5,30.13,NNW,332,0.0,1.0,80,0.00,,,0.01,VWS V14.01,2013-01-31 00:51:00,
2013-01-30 17:56:00,23.7,18.1,30.13,NNW,332,0.0,1.0,79,0.00,,,0.01,VWS V14.01,2013-01-31 00:56:00,
2013-01-30 18:00:00,23.0,18.3,30.16,NNW,340,0.0,2.0,82,0.00,,,0.01,VWS V14.01,2013-01-31 01:00:00,
2013-01-30 18:01:00,23.6,18.4,30.13,NNW,332,0.0,0.0,80,0.00,,,0.01,VWS V14.01,2013-01-31 01:01:00,
2013-01-30 18:06:00,23.5,18.2,30.14,NNW,332,0.0,0.0,80,0.00,,,0.01,VWS V14.01,2013-01-31 01:06:00,
2013-01-30 18:11:00,23.3,18.3,30.14,NNW,332,0.0,0.0,81,0.00,,,0.01,VWS V14.01,2013-01-31 01:11:00,
2013-01-30 18:16:00,23.2,18.2,30.15,NNW,332,0.0,0.0,81,0.00,,,0.01,VWS V14.01,2013-01-31 01:16:00,
2013-01-30 18:21:00,23.1,18.4,30.15,NNW,332,0.0,0.0,82,0.00,,,0.01,VWS V14.01,2013-01-31 01:21:00,
2013-01-30 18:26:00,23.1,18.1,30.15,NNW,332,0.0,0.0,81,0.00,,,0.01,VWS V14.01,2013-01-31 01:26:00,
2013-01-30 18:30:00,22.2,17.0,30.17,NNW,340,0.0,1.0,80,0.00,,,0.01,VWS V14.01,2013-01-31 01:30:00,
2013-01-30 18:31:00,23.0,18.0,30.15,NNW,332,0.0,0.0,81,0.00,,,0.01,VWS V14.01,2013-01-31 01:31:00,
2013-01-30 18:36:00,23.0,18.3,30.15,NNW,332,0.0,1.0,82,0.00,,,0.01,VWS V14.01,2013-01-31 01:36:00,
2013-01-30 18:41:00,23.0,18.3,30.15,NNW,340,1.0,2.0,82,0.00,,,0.01,VWS V14.01,2013-01-31 01:41:00,
2013-01-30 18:45:00,23.0,18.3,30.16,NNW,340,0.0,2.0,82,0.00,,,0.01,VWS V14.01,2013-01-31 01:45:00,
2013-01-30 18:50:00,23.0,18.3,30.15,NNW,340,0.0,2.0,82,0.00,,,0.01,VWS V14.01,2013-01-31 01:50:00,
2013-01-30 18:55:00,23.0,18.3,30.15,NNW,340,0.0,2.0,82,0.00,,,0.01,VWS V14.01,2013-01-31 01:55:00,
2013-01-30 19:00:00,23.0,18.3,30.16,NNW,340,0.0,0.0,82,0.00,,,0.01,VWS V14.01,2013-01-31 02:00:00,
2013-01-30 19:05:00,23.0,18.0,30.16,NNW,340,0.0,0.0,81,0.00,,,0.01,VWS V14.01,2013-01-31 02:05:00,
2013-01-30 19:10:00,22.9,18.0,30.16,NNW,340,0.0,1.0,81,0.00,,,0.01,VWS V14.01,2013-01-31 02:10:00,
2013-01-30 19:15:00,22.9,17.7,30.16,NNW,340,0.0,1.0,80,0.00,,,0.01,VWS V14.01,2013-01-31 02:15:00,
2013-01-30 19:20:00,22.8,17.6,30.16,NNW,340,0.0,1.0,80,0.00,,,0.01,VWS V14.01,2013-01-31 02:20:00,
2013-01-30 19:25:00,22.5,17.3,30.16,NNW,340,0.0,1.0,80,0.00,,,0.01,VWS V14.01,2013-01-31 02:25:00,
2013-01-30 19:30:00,22.2,17.0,30.17,NNW,340,0.0,0.0,80,0.00,,,0.01,VWS V14.01,2013-01-31 02:30:00,
2013-01-30 19:35:00,21.9,16.7,30.17,NNW,340,0.0,0.0,80,0.00,,,0.01,VWS V14.01,2013-01-31 02:35:00,
2013-01-30 19:40:00,21.8,16.6,30.17,NNW,340,0.0,0.0,80,0.00,,,0.01,VWS V14.01,2013-01-31 02:40:00,
2013-01-30 19:45:00,21.6,16.1,30.17,ESE,121,0.0,3.0,79,0.00,,,0.01,VWS V14.01,2013-01-31 02:45:00,
2013-01-30 19:50:00,21.1,15.6,30.17,ESE,121,0.0,3.0,79,0.00,,,0.01,VWS V14.01,2013-01-31 02:50:00,
2013-01-30 19:55:00,20.9,15.4,30.17,ESE,121,0.0,3.0,79,0.00,,,0.01,VWS V14.01,2013-01-31 02:55:00,
2013-01-30 20:00:00,20.6,15.4,30.17,ESE,121,0.0,0.0,80,0.00,,,0.01,VWS V14.01,2013-01-31 03:00:00,
2013-01-30 20:05:00,20.4,14.6,30.17,ESE,121,0.0,0.0,78,0.00,,,0.01,VWS V14.01,2013-01-31 03:05:00,
2013-01-30 20:10:00,20.1,14.4,30.17,ESE,121,0.0,0.0,78,0.00,,,0.01,VWS V14.01,2013-01-31 03:10:00,
2013-01-30 20:15:00,19.7,14.3,30.17,ESE,121,0.0,0.0,79,0.00,,,0.01,VWS V14.01,2013-01-31 03:15:00,
2013-01-30 20:20:00,19.5,14.1,30.17,ESE,121,0.0,0.0,79,0.00,,,0.01,VWS V14.01,2013-01-31 03:20:00,
2013-01-30 20:25:00,19.1,13.1,30.17,ESE,121,0.0,0.0,77,0.00,,,0.01,VWS V14.01,2013-01-31 03:25:00,
2013-01-30 20:30:00,18.5,12.8,30.17,ESE,121,0.0,0.0,78,0.00,,,0.01,VWS V14.01,2013-01-31 03:30:00,
2013-01-30 20:35:00,18.1,12.1,30.17,ESE,121,0.0,0.0,77,0.00,,,0.01,VWS V14.01,2013-01-31 03:35:00,
2013-01-30 20:40:00,17.7,11.1,30.17,ESE,121,0.0,0.0,75,0.00,,,0.01,VWS V14.01,2013-01-31 03:40:00,
2013-01-30 20:45:00,17.1,10.6,30.17,ESE,121,0.0,2.0,75,0.00,,,0.01,VWS V14.01,2013-01-31 03:45:00,
2013-01-30 20:50:00,16.6,10.1,30.17,ESE,121,0.0,2.0,75,0.00,,,0.01,VWS V14.01,2013-01-31 03:50:00,
2013-01-30 20:55:00,15.9,10.3,30.17,ESE,121,0.0,2.0,78,0.00,,,0.01,VWS V14.01,2013-01-31 03:55:00,
2013-01-30 21:00:00,15.6,10.0,30.17,ESE,121,0.0,0.0,78,0.00,,,0.01,VWS V14.01,2013-01-31 04:00:00,
2013-01-30 21:05:00,15.2,9.3,30.17,ESE,121,0.0,0.0,77,0.00,,,0.01,VWS V14.01,2013-01-31 04:05:00,
2013-01-30 21:10:00,14.6,8.4,30.17,ESE,121,0.0,1.0,76,0.00,,,0.01,VWS V14.01,2013-01-31 04:10:00,
2013-01-30 21:15:00,14.4,9.4,30.17,ESE,121,0.0,1.0,80,0.00,,,0.01,VWS V14.01,2013-01-31 04:15:00,
2013-01-30 21:20:00,13.9,8.6,30.17,ESE,121,0.0,1.0,79,0.00,,,0.01,VWS V14.01,2013-01-31 04:20:00,
2013-01-30 21:25:00,13.5,8.2,30.17,ESE,121,1.0,1.0,79,0.00,,,0.01,VWS V14.01,2013-01-31 04:25:00,
2013-01-30 21:30:00,13.1,7.8,30.17,SSW,199,0.0,0.0,79,0.00,,,0.01,VWS V14.01,2013-01-31 04:30:00,
2013-01-30 21:35:00,13.1,9.2,30.17,SSW,199,0.0,1.0,84,0.00,,,0.01,VWS V14.01,2013-01-31 04:35:00,
2013-01-30 21:40:00,13.6,10.2,30.17,SSW,199,0.0,1.0,86,0.00,,,0.01,VWS V14.01,2013-01-31 04:40:00,
2013-01-30 21:45:00,13.8,10.1,30.17,SSW,199,0.0,1.0,85,0.00,,,0.01,VWS V14.01,2013-01-31 04:45:00,
2013-01-30 21:50:00,13.8,10.1,30.17,SSW,199,0.0,1.0,85,0.00,,,0.01,VWS V14.01,2013-01-31 04:50:00,
2013-01-30 21:55:00,13.7,9.8,30.16,SSW,199,0.0,1.0,84,0.00,,,0.01,VWS V14.01,2013-01-31 04:55:00,
2013-01-30 22:00:00,13.5,9.0,30.16,SSW,199,0.0,0.0,82,0.00,,,0.01,VWS V14.01,2013-01-31 05:00:00,
2013-01-30 22:01:00,13.5,9.0,30.16,SSW,199,0.0,0.0,82,0.00,,,0.01,VWS V14.01,2013-01-31 05:01:00,
2013-01-30 22:06:00,13.6,9.7,30.16,SSW,199,0.0,1.0,84,0.00,,,0.01,VWS V14.01,2013-01-31 05:06:00,
2013-01-30 22:11:00,13.7,10.0,30.16,SSW,199,0.0,1.0,85,0.00,,,0.01,VWS V14.01,2013-01-31 05:11:00,
2013-01-30 22:16:00,14.7,11.5,30.16,ENE,61,1.0,5.0,87,0.00,,,0.01,VWS V14.01,2013-01-31 05:16:00,
2013-01-30 22:21:00,15.2,11.2,30.16,East,93,0.0,5.0,84,0.00,,,0.01,VWS V14.01,2013-01-31 05:21:00,
2013-01-30 22:26:00,15.3,11.3,30.17,East,98,0.0,5.0,84,0.00,,,0.01,VWS V14.01,2013-01-31 05:26:00,
2013-01-30 22:30:00,15.1,10.6,30.18,SE,130,0.0,2.0,82,0.00,,,0.01,VWS V14.01,2013-01-31 05:30:00,
2013-01-30 22:31:00,15.2,10.7,30.17,East,98,0.0,0.0,82,0.00,,,0.01,VWS V14.01,2013-01-31 05:31:00,
2013-01-30 22:36:00,15.0,10.2,30.17,East,98,0.0,0.0,81,0.00,,,0.01,VWS V14.01,2013-01-31 05:36:00,
2013-01-30 22:41:00,15.0,11.1,30.17,East,98,0.0,0.0,84,0.00,,,0.01,VWS V14.01,2013-01-31 05:41:00,
2013-01-30 22:46:00,14.9,10.7,30.17,East,98,0.0,1.0,83,0.00,,,0.01,VWS V14.01,2013-01-31 05:46:00,
2013-01-30 22:51:00,14.8,10.6,30.17,East,98,0.0,2.0,83,0.00,,,0.01,VWS V14.01,2013-01-31 05:51:00,
2013-01-30 22:56:00,14.6,10.1,30.17,East,98,0.0,2.0,82,0.00,,,0.01,VWS V14.01,2013-01-31 05:56:00,
2013-01-30 23:00:00,14.3,10.1,30.18,SE,130,0.0,1.0,83,0.00,,,0.01,VWS V14.01,2013-01-31 06:00:00,
2013-01-30 23:01:00,14.6,9.8,30.17,East,98,0.0,1.0,81,0.00,,,0.01,VWS V14.01,2013-01-31 06:01:00,
2013-01-30 23:06:00,14.6,10.4,30.17,East,98,0.0,1.0,83,0.00,,,0.01,VWS V14.01,2013-01-31 06:06:00,
2013-01-30 23:11:00,14.6,10.4,30.17,East,98,1.0,1.0,83,0.00,,,0.01,VWS V14.01,2013-01-31 06:11:00,
2013-01-30 23:16:00,14.5,10.3,30.17,SE,130,1.0,2.0,83,0.00,,,0.01,VWS V14.01,2013-01-31 06:16:00,
2013-01-30 23:21:00,15.1,11.4,30.17,SE,130,0.0,2.0,85,0.00,,,0.01,VWS V14.01,2013-01-31 06:21:00,
2013-01-30 23:26:00,15.2,11.2,30.18,SE,130,0.0,2.0,84,0.00,,,0.01,VWS V14.01,2013-01-31 06:26:00,
2013-01-30 23:30:00,15.3,11.6,30.19,SE,130,0.0,1.0,85,0.00,,,0.00,VWS V14.01,2013-01-31 06:30:00,
2013-01-30 23:31:00,15.1,10.6,30.18,SE,130,0.0,0.0,82,0.00,,,0.01,VWS V14.01,2013-01-31 06:31:00,
2013-01-30 23:36:00,14.8,9.8,30.18,SE,130,0.0,1.0,80,0.00,,,0.01,VWS V14.01,2013-01-31 06:36:00,
2013-01-30 23:41:00,14.6,10.1,30.18,SE,130,0.0,1.0,82,0.00,,,0.01,VWS V14.01,2013-01-31 06:41:00,
2013-01-30 23:46:00,14.5,10.0,30.18,SE,130,0.0,1.0,82,0.00,,,0.01,VWS V14.01,2013-01-31 06:46:00,
2013-01-30 23:51:00,14.6,10.4,30.18,SE,130,0.0,1.0,83,0.00,,,0.01,VWS V14.01,2013-01-31 06:51:00,
2013-01-30 23:56:00,14.4,9.9,30.18,SE,130,0.0,1.0,82,0.00,,,0.01,VWS V14.01,2013-01-31 06:56:00,